| time (UTC) | temp F | wind direction | speed MPH | gust MPH | rain 1hr in | rain 24hr in | rain mn in | humidity % | barometer mb |
| 20260905045024 | 77 | 338 | 4.0 | 11.0 | 0.00 | 0.00 | 0.00 | 57 | 1017.5 |
| 20260905044520 | 77 | 331 | 7.0 | 10.0 | 0.00 | 0.00 | 0.00 | 58 | 1017.5 |
| 20260905044019 | 77 | 319 | 5.0 | 10.0 | 0.00 | 0.00 | 0.00 | 58 | 1017.5 |
| 20260905043517 | 76 | 315 | 6.0 | 10.0 | 0.00 | 0.00 | 0.00 | 58 | 1017.4 |
| 20260905043016 | 76 | 302 | 4.0 | 10.0 | 0.00 | 0.00 | 0.00 | 58 | 1017.5 |
| 20260905042518 | 76 | 300 | 6.0 | 10.0 | 0.00 | 0.00 | 0.00 | 58 | 1017.5 |
| 20260905042013 | 76 | 345 | 4.0 | 10.0 | 0.00 | 0.00 | 0.00 | 57 | 1017.4 |
| 20260905041513 | 76 | 340 | 4.0 | 10.0 | 0.00 | 0.00 | 0.00 | 56 | 1017.3 |
| 20260905041013 | 76 | 78 | 1.0 | 4.0 | 0.00 | 0.00 | 0.00 | 56 | 1017.2 |
| 20260905040512 | 76 | 350 | 1.0 | 5.0 | 0.00 | 0.00 | 0.00 | 55 | 1017.1 |
| 20260905040011 | 77 | 336 | 3.0 | 5.0 | 0.00 | 0.00 | 0.00 | 55 | 1017.0 |
| 20260905035511 | 76 | 304 | 1.0 | 4.0 | 0.00 | 0.00 | 0.00 | 56 | 1016.9 |
| 20260905035015 | 76 | 272 | 0.0 | 4.0 | 0.00 | 0.00 | 0.00 | 57 | 1017.0 |
| 20260905034510 | 76 | 281 | 0.0 | 4.0 | 0.00 | 0.00 | 0.00 | 56 | 1017.0 |
| 20260905034010 | 76 | 276 | 1.0 | 5.0 | 0.00 | 0.00 | 0.00 | 56 | 1016.9 |
| 20260905033512 | 76 | 190 | 3.0 | 5.0 | 0.00 | 0.00 | 0.00 | 57 | 1016.9 |
| 20260905033018 | 76 | 330 | 3.0 | 7.0 | 0.00 | 0.00 | 0.00 | 57 | 1016.9 |
| 20260905032509 | 76 | 190 | 5.0 | 7.0 | 0.00 | 0.00 | 0.00 | 57 | 1016.8 |
| 20260905032009 | 76 | 240 | 1.0 | 4.0 | 0.00 | 0.00 | 0.00 | 56 | 1016.9 |
| 20260905031509 | 76 | 270 | 2.0 | 4.0 | 0.00 | 0.00 | 0.00 | 57 | 1016.8 |
| 20260905031008 | 76 | 302 | 2.0 | 4.0 | 0.00 | 0.00 | 0.00 | 56 | 1016.8 |
| 20260905030508 | 76 | 225 | 0.0 | 3.0 | 0.00 | 0.00 | 0.00 | 55 | 1016.9 |
| 20260905030010 | 76 | 182 | 0.0 | 4.0 | 0.00 | 0.00 | 0.00 | 55 | 1016.8 |
| 20260905025507 | 76 | 189 | 2.0 | 4.0 | 0.00 | 0.00 | 0.00 | 54 | 1016.8 |
| 20260905025007 | 76 | 215 | 2.0 | 4.0 | 0.00 | 0.00 | 0.00 | 53 | 1016.8 |
| 20260905024507 | 77 | 231 | 1.0 | 3.0 | 0.00 | 0.00 | 0.00 | 53 | 1016.9 |
| 20260905024008 | 77 | 217 | 1.0 | 3.0 | 0.00 | 0.00 | 0.00 | 51 | 1016.9 |
| 20260905023507 | 77 | 208 | 1.0 | 8.0 | 0.00 | 0.00 | 0.00 | 51 | 1016.9 |
| 20260905023006 | 77 | 205 | 5.0 | 8.0 | 0.00 | 0.00 | 0.00 | 50 | 1016.8 |
| 20260905022507 | 76 | 179 | 7.0 | 9.0 | 0.00 | 0.00 | 0.00 | 52 | 1016.8 |
| 20260905022006 | 76 | 127 | 2.0 | 4.0 | 0.00 | 0.00 | 0.00 | 52 | 1017.0 |
| 20260905021505 | 76 | 126 | 1.0 | 5.0 | 0.00 | 0.00 | 0.00 | 52 | 1016.9 |
| 20260905021005 | 76 | 126 | 2.0 | 4.0 | 0.00 | 0.00 | 0.00 | 53 | 1016.8 |
| 20260905020509 | 76 | 117 | 0.0 | 8.0 | 0.00 | 0.00 | 0.00 | 53 | 1016.9 |
| 20260905020005 | 75 | 119 | 4.0 | 8.0 | 0.00 | 0.00 | 0.00 | 53 | 1016.8 |
| 20260905015504 | 75 | 129 | 1.0 | 4.0 | 0.00 | 0.00 | 0.00 | 53 | 1016.6 |
| 20260905015008 | 76 | 67 | 2.0 | 6.0 | 0.00 | 0.00 | 0.00 | 53 | 1016.9 |
| 20260905014503 | 76 | 11 | 3.0 | 9.0 | 0.00 | 0.00 | 0.00 | 53 | 1016.7 |
| 20260905014003 | 77 | 23 | 5.0 | 11.0 | 0.00 | 0.00 | 0.00 | 52 | 1016.6 |
| 20260905013502 | 78 | 55 | 5.0 | 11.0 | 0.00 | 0.00 | 0.00 | 51 | 1016.5 |
| 20260905013005 | 78 | 50 | 4.0 | 13.0 | 0.00 | 0.00 | 0.00 | 51 | 1016.5 |
| 20260905012502 | 78 | 85 | 6.0 | 16.0 | 0.00 | 0.00 | 0.00 | 50 | 1016.5 |
| 20260905012002 | 78 | 82 | 8.0 | 16.0 | 0.00 | 0.00 | 0.00 | 50 | 1016.6 |
| 20260905011504 | 78 | 79 | 6.0 | 10.0 | 0.00 | 0.00 | 0.00 | 50 | 1016.7 |
| 20260905011001 | 78 | 105 | 7.0 | 13.0 | 0.00 | 0.00 | 0.00 | 50 | 1016.6 |
| 20260905010500 | 78 | 87 | 7.0 | 12.0 | 0.00 | 0.00 | 0.00 | 49 | 1016.6 |
| 20260905010000 | 78 | 105 | 6.0 | 10.0 | 0.00 | 0.00 | 0.00 | 49 | 1016.6 |
| 20260905005600 | 78 | 59 | 5.0 | 9.0 | 0.00 | 0.00 | 0.00 | 49 | 1016.6 |
| 20260905005105 | 78 | 102 | 3.0 | 9.0 | 0.00 | 0.00 | 0.00 | 49 | 1016.6 |
| 20260905004617 | 78 | 117 | 4.0 | 9.0 | 0.00 | 0.00 | 0.00 | 49 | 1016.7 |
| 20260905004058 | 78 | 99 | 3.0 | 9.0 | 0.00 | 0.00 | 0.00 | 48 | 1016.6 |
| 20260905003600 | 78 | 111 | 5.0 | 7.0 | 0.00 | 0.00 | 0.00 | 48 | 1016.7 |
| 20260905003102 | 78 | 107 | 3.0 | 6.0 | 0.00 | 0.00 | 0.00 | 48 | 1016.7 |
| 20260905002557 | 78 | 101 | 1.0 | 6.0 | 0.00 | 0.00 | 0.00 | 48 | 1016.6 |
| 20260905002058 | 78 | 137 | 0.0 | 0.0 | 0.00 | 0.00 | 0.00 | 47 | 1016.6 |
| 20260905001601 | 78 | 141 | 0.0 | 3.0 | 0.00 | 0.00 | 0.00 | 47 | 1016.7 |
| 20260905001059 | 78 | 144 | 0.0 | 6.0 | 0.00 | 0.00 | 0.00 | 47 | 1016.8 |
| 20260905000557 | 77 | 147 | 2.0 | 6.0 | 0.00 | 0.00 | 0.00 | 47 | 1016.7 |
| 20260905000116 | 77 | 99 | 1.0 | 3.0 | 0.00 | 0.00 | 0.00 | 48 | 1016.7 |
| 20260904235558 | 77 | 45 | 0.0 | 0.0 | 0.00 | 0.00 | 0.00 | 48 | 1016.7 |
| 20260904235057 | 77 | 46 | 0.0 | 2.0 | 0.00 | 0.00 | 0.00 | 48 | 1016.8 |
| 20260904234556 | 77 | 45 | 0.0 | 2.0 | 0.00 | 0.00 | 0.00 | 48 | 1016.8 |
| 20260904234056 | 77 | 38 | 0.0 | 0.0 | 0.00 | 0.00 | 0.00 | 49 | 1016.8 |
| 20260904233557 | 77 | 38 | 0.0 | 1.0 | 0.00 | 0.00 | 0.00 | 49 | 1016.7 |
| 20260904233057 | 76 | 39 | 0.0 | 1.0 | 0.00 | 0.00 | 0.00 | 49 | 1016.6 |
| 20260904232657 | 76 | 39 | 0.0 | 2.0 | 0.00 | 0.00 | 0.00 | 50 | 1016.7 |
| 20260904232057 | 76 | 39 | 0.0 | 2.0 | 0.00 | 0.00 | 0.00 | 50 | 1016.7 |
| 20260904231554 | 75 | 36 | 1.0 | 4.0 | 0.00 | 0.00 | 0.00 | 50 | 1016.7 |
| 20260904231053 | 76 | 34 | 2.0 | 4.0 | 0.00 | 0.00 | 0.00 | 51 | 1016.7 |
| 20260904230553 | 76 | 21 | 3.0 | 4.0 | 0.00 | 0.00 | 0.00 | 50 | 1016.9 |
| 20260904230109 | 76 | 26 | 2.0 | 5.0 | 0.00 | 0.00 | 0.00 | 50 | 1016.8 |
| 20260904225553 | 75 | 32 | 2.0 | 5.0 | 0.00 | 0.00 | 0.00 | 51 | 1016.9 |
| 20260904225051 | 75 | 30 | 2.0 | 5.0 | 0.00 | 0.00 | 0.00 | 51 | 1016.9 |
| 20260904224550 | 75 | 28 | 3.0 | 5.0 | 0.00 | 0.00 | 0.00 | 51 | 1016.9 |
| 20260904224050 | 75 | 14 | 3.0 | 5.0 | 0.00 | 0.00 | 0.00 | 51 | 1017.0 |
| 20260904223548 | 76 | 31 | 2.0 | 4.0 | 0.00 | 0.00 | 0.00 | 50 | 1017.0 |
| 20260904223051 | 76 | 31 | 2.0 | 4.0 | 0.00 | 0.00 | 0.00 | 49 | 1017.0 |
| 20260904222549 | 77 | 34 | 1.0 | 4.0 | 0.00 | 0.00 | 0.00 | 49 | 1017.0 |
| 20260904222044 | 78 | 97 | 0.0 | 4.0 | 0.00 | 0.00 | 0.00 | 47 | 1016.9 |
| 20260904221546 | 78 | 82 | 0.0 | 6.0 | 0.00 | 0.00 | 0.00 | 46 | 1017.0 |
| 20260904221042 | 79 | 85 | 1.0 | 6.0 | 0.00 | 0.00 | 0.00 | 45 | 1017.1 |
| 20260904220544 | 79 | 82 | 3.0 | 7.0 | 0.00 | 0.00 | 0.00 | 45 | 1017.2 |
| 20260904220045 | 79 | 89 | 3.0 | 6.0 | 0.00 | 0.00 | 0.00 | 45 | 1017.2 |
| 20260904215543 | 79 | 73 | 3.0 | 8.0 | 0.00 | 0.00 | 0.00 | 45 | 1017.2 |
| 20260904215040 | 79 | 85 | 4.0 | 8.0 | 0.00 | 0.00 | 0.00 | 45 | 1017.1 |
| 20260904214540 | 79 | 90 | 2.0 | 8.0 | 0.00 | 0.00 | 0.00 | 44 | 1017.3 |
| 20260904214039 | 79 | 72 | 2.0 | 9.0 | 0.00 | 0.00 | 0.00 | 44 | 1017.2 |
| 20260904213539 | 80 | 112 | 2.0 | 9.0 | 0.00 | 0.00 | 0.00 | 44 | 1017.2 |
| 20260904213042 | 79 | 53 | 3.0 | 7.0 | 0.00 | 0.00 | 0.00 | 44 | 1017.3 |
| 20260904212540 | 79 | 75 | 1.0 | 4.0 | 0.00 | 0.00 | 0.00 | 45 | 1017.2 |
| 20260904212038 | 79 | 88 | 0.0 | 6.0 | 0.00 | 0.00 | 0.00 | 45 | 1017.3 |
| 20260904211535 | 79 | 88 | 3.0 | 7.0 | 0.00 | 0.00 | 0.00 | 45 | 1017.2 |
| 20260904211035 | 79 | 97 | 0.0 | 3.0 | 0.00 | 0.00 | 0.00 | 46 | 1017.3 |
| 20260904210537 | 79 | 92 | 1.0 | 4.0 | 0.00 | 0.00 | 0.00 | 45 | 1017.2 |
| 20260904210034 | 78 | 98 | 0.0 | 4.0 | 0.00 | 0.00 | 0.00 | 46 | 1017.3 |
| 20260904205534 | 78 | 71 | 0.0 | 4.0 | 0.00 | 0.00 | 0.00 | 46 | 1017.2 |
| 20260904205033 | 79 | 84 | 1.0 | 4.0 | 0.00 | 0.00 | 0.00 | 45 | 1017.3 |
| 20260904204535 | 79 | 101 | 0.0 | 3.0 | 0.00 | 0.00 | 0.00 | 45 | 1017.3 |
| 20260904204034 | 79 | 78 | 1.0 | 3.0 | 0.00 | 0.00 | 0.00 | 46 | 1017.3 |
| 20260904203532 | 78 | 74 | 0.0 | 1.0 | 0.00 | 0.00 | 0.00 | 48 | 1017.4 |
| 20260904203032 | 78 | 73 | 0.0 | 2.0 | 0.00 | 0.00 | 0.00 | 48 | 1017.4 |
| 20260904202532 | 78 | 73 | 0.0 | 2.0 | 0.00 | 0.00 | 0.00 | 48 | 1017.4 |
| 20260904202031 | 79 | 75 | 0.0 | 5.0 | 0.00 | 0.00 | 0.00 | 48 | 1017.4 |
| 20260904201531 | 79 | 76 | 1.0 | 5.0 | 0.00 | 0.00 | 0.00 | 46 | 1017.5 |
| 20260904201033 | 79 | 63 | 0.0 | 3.0 | 0.00 | 0.00 | 0.00 | 46 | 1017.5 |
| 20260904200535 | 79 | 39 | 0.0 | 3.0 | 0.00 | 0.00 | 0.00 | 47 | 1017.4 |
| 20260904200042 | 79 | 34 | 1.0 | 4.0 | 0.00 | 0.00 | 0.00 | 47 | 1017.4 |
| 20260904195532 | 80 | 15 | 2.0 | 5.0 | 0.00 | 0.00 | 0.00 | 47 | 1017.5 |
| 20260904195030 | 80 | 95 | 2.0 | 5.0 | 0.00 | 0.00 | 0.00 | 46 | 1017.5 |
| 20260904194534 | 80 | 84 | 0.0 | 6.0 | 0.00 | 0.00 | 0.00 | 46 | 1017.5 |
| 20260904194030 | 80 | 107 | 2.0 | 8.0 | 0.00 | 0.00 | 0.00 | 47 | 1017.5 |
| 20260904193530 | 80 | 85 | 3.0 | 8.0 | 0.00 | 0.00 | 0.00 | 47 | 1017.5 |
| 20260904193036 | 80 | 87 | 4.0 | 8.0 | 0.00 | 0.00 | 0.00 | 47 | 1017.5 |
| 20260904192529 | 80 | 117 | 2.0 | 4.0 | 0.00 | 0.00 | 0.00 | 46 | 1017.6 |
| 20260904192029 | 80 | 83 | 0.0 | 10.0 | 0.00 | 0.00 | 0.00 | 45 | 1017.6 |
| 20260904191537 | 80 | 86 | 5.0 | 10.0 | 0.00 | 0.00 | 0.00 | 45 | 1017.6 |
| 20260904191029 | 80 | 87 | 2.0 | 5.0 | 0.00 | 0.00 | 0.00 | 44 | 1017.6 |
| 20260904190529 | 80 | 84 | 0.0 | 5.0 | 0.00 | 0.00 | 0.00 | 44 | 1017.6 |
| 20260904190027 | 81 | 90 | 0.0 | 6.0 | 0.00 | 0.00 | 0.00 | 45 | 1017.5 |
| 20260904185528 | 81 | 93 | 2.0 | 6.0 | 0.00 | 0.00 | 0.00 | 45 | 1017.4 |
| 20260904185026 | 81 | 42 | 0.0 | 3.0 | 0.00 | 0.00 | 0.00 | 45 | 1017.3 |
| 20260904184525 | 81 | 25 | 0.0 | 4.0 | 0.00 | 0.00 | 0.00 | 45 | 1017.2 |
| 20260904184025 | 81 | 82 | 2.0 | 4.0 | 0.00 | 0.00 | 0.00 | 45 | 1017.2 |
| 20260904183525 | 81 | 115 | 1.0 | 4.0 | 0.00 | 0.00 | 0.00 | 46 | 1017.2 |
| 20260904183023 | 81 | 113 | 2.0 | 4.0 | 0.00 | 0.00 | 0.00 | 46 | 1017.1 |
| 20260904182523 | 81 | 88 | 1.0 | 6.0 | 0.00 | 0.00 | 0.00 | 45 | 1017.1 |
| 20260904182023 | 81 | 99 | 4.0 | 9.0 | 0.00 | 0.00 | 0.00 | 45 | 1017.0 |
| 20260904181532 | 81 | 69 | 3.0 | 9.0 | 0.00 | 0.00 | 0.00 | 45 | 1017.1 |
| 20260904181022 | 81 | 67 | 3.0 | 8.0 | 0.00 | 0.00 | 0.00 | 46 | 1017.0 |
| 20260904180522 | 81 | 92 | 4.0 | 10.0 | 0.00 | 0.00 | 0.00 | 45 | 1017.0 |
| 20260904180022 | 81 | 61 | 5.0 | 10.0 | 0.00 | 0.00 | 0.00 | 45 | 1017.0 |
| 20260904175521 | 82 | 111 | 4.0 | 9.0 | 0.00 | 0.00 | 0.00 | 45 | 1016.9 |
| 20260904175021 | 82 | 124 | 5.0 | 9.0 | 0.00 | 0.00 | 0.00 | 45 | 1016.8 |
| 20260904174520 | 82 | 114 | 4.0 | 9.0 | 0.00 | 0.00 | 0.00 | 45 | 1016.8 |
| 20260904174020 | 82 | 72 | 5.0 | 9.0 | 0.00 | 0.00 | 0.00 | 44 | 1016.7 |
| 20260904173517 | 82 | 88 | 4.0 | 9.0 | 0.00 | 0.00 | 0.00 | 44 | 1016.6 |
| 20260904173019 | 82 | 63 | 4.0 | 10.0 | 0.00 | 0.00 | 0.00 | 44 | 1016.4 |
| 20260904172516 | 82 | 360 | 2.0 | 10.0 | 0.00 | 0.00 | 0.00 | 44 | 1016.3 |
| 20260904172016 | 83 | 82 | 4.0 | 12.0 | 0.00 | 0.00 | 0.00 | 44 | 1016.4 |
| 20260904171518 | 83 | 98 | 3.0 | 12.0 | 0.00 | 0.00 | 0.00 | 45 | 1016.3 |
| 20260904171016 | 83 | 55 | 7.0 | 12.0 | 0.00 | 0.00 | 0.00 | 44 | 1016.3 |
| 20260904170514 | 83 | 40 | 8.0 | 12.0 | 0.00 | 0.00 | 0.00 | 43 | 1016.2 |
| 20260904170015 | 84 | 68 | 8.0 | 12.0 | 0.00 | 0.00 | 0.00 | 41 | 1016.1 |
| 20260904165516 | 84 | 82 | 5.0 | 12.0 | 0.00 | 0.00 | 0.00 | 39 | 1016.0 |
| 20260904165015 | 84 | 44 | 6.0 | 14.0 | 0.00 | 0.00 | 0.00 | 38 | 1015.9 |
| 20260904164514 | 84 | 13 | 10.0 | 14.0 | 0.00 | 0.00 | 0.00 | 38 | 1016.0 |
| 20260904164017 | 85 | 59 | 8.0 | 17.0 | 0.00 | 0.00 | 0.00 | 39 | 1016.0 |
| 20260904163513 | 85 | 5 | 10.0 | 17.0 | 0.00 | 0.00 | 0.00 | 39 | 1016.0 |
| 20260904163014 | 85 | 59 | 7.0 | 16.0 | 0.00 | 0.00 | 0.00 | 39 | 1016.0 |
| 20260904162514 | 85 | 44 | 8.0 | 15.0 | 0.00 | 0.00 | 0.00 | 39 | 1016.0 |
| 20260904162014 | 85 | 24 | 9.0 | 17.0 | 0.00 | 0.00 | 0.00 | 39 | 1015.9 |
| 20260904161513 | 85 | 5 | 11.0 | 18.0 | 0.00 | 0.00 | 0.00 | 39 | 1015.9 |
| 20260904161016 | 86 | 349 | 10.0 | 24.0 | 0.00 | 0.00 | 0.00 | 39 | 1015.9 |
| 20260904160514 | 86 | 28 | 15.0 | 24.0 | 0.00 | 0.00 | 0.00 | 39 | 1015.9 |
| 20260904160013 | 86 | 5 | 11.0 | 25.0 | 0.00 | 0.00 | 0.00 | 39 | 1015.8 |
| 20260904155512 | 86 | 355 | 14.0 | 25.0 | 0.00 | 0.00 | 0.00 | 39 | 1015.7 |
| 20260904155012 | 86 | 5 | 13.0 | 23.0 | 0.00 | 0.00 | 0.00 | 38 | 1015.6 |
| 20260904154512 | 87 | 29 | 14.0 | 23.0 | 0.00 | 0.00 | 0.00 | 38 | 1015.6 |
| 20260904154015 | 87 | 55 | 12.0 | 21.0 | 0.00 | 0.00 | 0.00 | 39 | 1015.6 |
| 20260904153511 | 87 | 355 | 12.0 | 22.0 | 0.00 | 0.00 | 0.00 | 39 | 1015.6 |
| 20260904153018 | 87 | 19 | 15.0 | 22.0 | 0.00 | 0.00 | 0.00 | 40 | 1015.5 |
| 20260904152510 | 87 | 17 | 10.0 | 19.0 | 0.00 | 0.00 | 0.00 | 39 | 1015.6 |
| 20260904152010 | 87 | 14 | 9.0 | 21.0 | 0.00 | 0.00 | 0.00 | 38 | 1015.4 |
| 20260904151510 | 87 | 348 | 16.0 | 21.0 | 0.00 | 0.00 | 0.00 | 39 | 1015.4 |
| 20260904151013 | 87 | 19 | 9.0 | 21.0 | 0.00 | 0.00 | 0.00 | 40 | 1015.5 |
| 20260904150508 | 87 | 28 | 8.0 | 21.0 | 0.00 | 0.00 | 0.00 | 40 | 1015.4 |
| 20260904150008 | 87 | 355 | 11.0 | 24.0 | 0.00 | 0.00 | 0.00 | 40 | 1015.4 |
| 20260904145508 | 87 | 39 | 15.0 | 25.0 | 0.00 | 0.00 | 0.00 | 40 | 1015.4 |
| 20260904145008 | 87 | 17 | 16.0 | 25.0 | 0.00 | 0.00 | 0.00 | 40 | 1015.4 |
| 20260904144507 | 87 | 30 | 15.0 | 27.0 | 0.00 | 0.00 | 0.00 | 39 | 1015.4 |
| 20260904144009 | 87 | 9 | 11.0 | 27.0 | 0.00 | 0.00 | 0.00 | 39 | 1015.5 |
| 20260904143505 | 88 | 355 | 15.0 | 24.0 | 0.00 | 0.00 | 0.00 | 38 | 1015.3 |
| 20260904143014 | 89 | 66 | 15.0 | 20.0 | 0.00 | 0.00 | 0.00 | 38 | 1015.5 |
| 20260904142508 | 89 | 54 | 8.0 | 23.0 | 0.00 | 0.00 | 0.00 | 38 | 1015.3 |
| 20260904142005 | 88 | 32 | 14.0 | 23.0 | 0.00 | 0.00 | 0.00 | 39 | 1015.3 |
| 20260904141511 | 89 | 350 | 9.0 | 19.0 | 0.00 | 0.00 | 0.00 | 39 | 1015.2 |
| 20260904141003 | 88 | 5 | 11.0 | 23.0 | 0.00 | 0.00 | 0.00 | 39 | 1015.2 |
| 20260904140503 | 89 | 38 | 9.0 | 21.0 | 0.00 | 0.00 | 0.00 | 39 | 1015.3 |
| 20260904140002 | 88 | 31 | 11.0 | 21.0 | 0.00 | 0.00 | 0.00 | 39 | 1015.1 |
| 20260904135502 | 88 | 61 | 15.0 | 23.0 | 0.00 | 0.00 | 0.00 | 40 | 1015.3 |
| 20260904135001 | 88 | 5 | 15.0 | 23.0 | 0.00 | 0.00 | 0.00 | 41 | 1015.2 |
| 20260904134501 | 88 | 22 | 16.0 | 23.0 | 0.00 | 0.00 | 0.00 | 40 | 1015.3 |
| 20260904134100 | 88 | 360 | 12.0 | 24.0 | 0.00 | 0.00 | 0.00 | 39 | 1015.4 |
| 20260904133600 | 87 | 22 | 17.0 | 26.0 | 0.00 | 0.00 | 0.00 | 40 | 1015.4 |
| 20260904133059 | 88 | 355 | 13.0 | 23.0 | 0.00 | 0.00 | 0.00 | 41 | 1015.4 |
| 20260904132559 | 88 | 67 | 15.0 | 23.0 | 0.00 | 0.00 | 0.00 | 42 | 1015.5 |
| 20260904132058 | 88 | 19 | 14.0 | 26.0 | 0.00 | 0.00 | 0.00 | 42 | 1015.3 |
| 20260904131608 | 88 | 5 | 13.0 | 26.0 | 0.00 | 0.00 | 0.00 | 41 | 1015.3 |
| 20260904131100 | 89 | 18 | 12.0 | 22.0 | 0.00 | 0.00 | 0.00 | 42 | 1015.2 |
| 20260904130556 | 89 | 20 | 13.0 | 22.0 | 0.00 | 0.00 | 0.00 | 41 | 1015.3 |
| 20260904130056 | 88 | 80 | 11.0 | 23.0 | 0.00 | 0.00 | 0.00 | 41 | 1015.3 |
| 20260904125556 | 89 | 23 | 15.0 | 23.0 | 0.00 | 0.00 | 0.00 | 41 | 1015.4 |
| 20260904125056 | 89 | 41 | 12.0 | 21.0 | 0.00 | 0.00 | 0.00 | 40 | 1015.3 |
| 20260904124554 | 89 | 72 | 12.0 | 23.0 | 0.00 | 0.00 | 0.00 | 40 | 1015.1 |
| 20260904124053 | 89 | 23 | 10.0 | 23.0 | 0.00 | 0.00 | 0.00 | 41 | 1015.1 |
| 20260904123552 | 88 | 98 | 12.0 | 23.0 | 0.00 | 0.00 | 0.00 | 40 | 1015.2 |
| 20260904123052 | 88 | 81 | 11.0 | 29.0 | 0.00 | 0.00 | 0.00 | 42 | 1015.3 |
| 20260904122552 | 88 | 57 | 10.0 | 31.0 | 0.00 | 0.00 | 0.00 | 41 | 1015.4 |
| 20260904122051 | 88 | 71 | 16.0 | 25.0 | 0.00 | 0.00 | 0.00 | 40 | 1015.3 |
| 20260904121551 | 89 | 53 | 15.0 | 23.0 | 0.00 | 0.00 | 0.00 | 40 | 1015.3 |
| 20260904121050 | 89 | 47 | 12.0 | 23.0 | 0.00 | 0.00 | 0.00 | 40 | 1015.4 |
| 20260904120549 | 89 | 81 | 12.0 | 28.0 | 0.00 | 0.00 | 0.00 | 40 | 1015.5 |
| 20260904120049 | 89 | 15 | 6.0 | 28.0 | 0.00 | 0.00 | 0.00 | 40 | 1015.5 |
| 20260904115549 | 89 | 84 | 13.0 | 27.0 | 0.00 | 0.00 | 0.00 | 39 | 1015.4 |
| 20260904115048 | 89 | 5 | 7.0 | 21.0 | 0.00 | 0.00 | 0.00 | 39 | 1015.4 |
| 20260904114548 | 89 | 12 | 13.0 | 21.0 | 0.00 | 0.00 | 0.00 | 38 | 1015.6 |
| 20260904114047 | 90 | 360 | 11.0 | 21.0 | 0.00 | 0.00 | 0.00 | 37 | 1015.5 |
| 20260904113546 | 89 | 19 | 8.0 | 20.0 | 0.00 | 0.00 | 0.00 | 39 | 1015.4 |
| 20260904113046 | 89 | 45 | 11.0 | 20.0 | 0.00 | 0.00 | 0.00 | 39 | 1015.4 |
| 20260904112547 | 89 | 48 | 6.0 | 21.0 | 0.00 | 0.00 | 0.00 | 40 | 1015.5 |
| 20260904112044 | 88 | 67 | 14.0 | 25.0 | 0.00 | 0.00 | 0.00 | 40 | 1015.6 |
| 20260904111543 | 88 | 20 | 17.0 | 25.0 | 0.00 | 0.00 | 0.00 | 40 | 1015.7 |
| 20260904111043 | 88 | 5 | 14.0 | 23.0 | 0.00 | 0.00 | 0.00 | 40 | 1015.6 |
| 20260904110544 | 88 | 61 | 7.0 | 26.0 | 0.00 | 0.00 | 0.00 | 40 | 1015.7 |
| 20260904110043 | 87 | 67 | 12.0 | 26.0 | 0.00 | 0.00 | 0.00 | 41 | 1015.9 |
| 20260904105543 | 87 | 360 | 15.0 | 24.0 | 0.00 | 0.00 | 0.00 | 40 | 1015.9 |
| 20260904105041 | 87 | 19 | 14.0 | 23.0 | 0.00 | 0.00 | 0.00 | 40 | 1016.0 |
| 20260904104540 | 87 | 73 | 15.0 | 27.0 | 0.00 | 0.00 | 0.00 | 42 | 1016.1 |
| 20260904104040 | 87 | 26 | 17.0 | 27.0 | 0.00 | 0.00 | 0.00 | 41 | 1016.0 |
| 20260904103540 | 88 | 31 | 11.0 | 23.0 | 0.00 | 0.00 | 0.00 | 41 | 1015.9 |
| 20260904103052 | 87 | 40 | 11.0 | 26.0 | 0.00 | 0.00 | 0.00 | 43 | 1016.0 |
| 20260904102540 | 87 | 89 | 16.0 | 25.0 | 0.00 | 0.00 | 0.00 | 42 | 1015.8 |
| 20260904102039 | 87 | 82 | 12.0 | 24.0 | 0.00 | 0.00 | 0.00 | 44 | 1015.7 |
| 20260904101548 | 87 | 18 | 13.0 | 28.0 | 0.00 | 0.00 | 0.00 | 45 | 1015.8 |
| 20260904101039 | 87 | 38 | 17.0 | 28.0 | 0.00 | 0.00 | 0.00 | 45 | 1016.0 |
| 20260904100539 | 87 | 59 | 15.0 | 24.0 | 0.00 | 0.00 | 0.00 | 48 | 1016.0 |
| 20260904100038 | 87 | 67 | 13.0 | 25.0 | 0.00 | 0.00 | 0.00 | 45 | 1016.1 |
| 20260904095539 | 87 | 33 | 15.0 | 26.0 | 0.00 | 0.00 | 0.00 | 44 | 1016.1 |
| 20260904095039 | 87 | 16 | 14.0 | 26.0 | 0.00 | 0.00 | 0.00 | 44 | 1016.1 |
| 20260904094549 | 87 | 31 | 14.0 | 28.0 | 0.00 | 0.00 | 0.00 | 45 | 1016.0 |
| 20260904094036 | 86 | 11 | 19.0 | 28.0 | 0.00 | 0.00 | 0.00 | 46 | 1016.0 |
| 20260904093538 | 87 | 17 | 15.0 | 23.0 | 0.00 | 0.00 | 0.00 | 46 | 1016.1 |
| 20260904093035 | 87 | 28 | 15.0 | 23.0 | 0.00 | 0.00 | 0.00 | 47 | 1016.1 |
| 20260904092535 | 86 | 39 | 14.0 | 24.0 | 0.00 | 0.00 | 0.00 | 48 | 1016.0 |
| 20260904092035 | 87 | 11 | 13.0 | 26.0 | 0.00 | 0.00 | 0.00 | 48 | 1015.8 |
| 20260904091535 | 87 | 19 | 13.0 | 27.0 | 0.00 | 0.00 | 0.00 | 48 | 1015.9 |
| 20260904091033 | 86 | 351 | 12.0 | 27.0 | 0.00 | 0.00 | 0.00 | 49 | 1015.9 |
| 20260904090530 | 86 | 355 | 18.0 | 25.0 | 0.00 | 0.00 | 0.00 | 49 | 1015.9 |
| 20260904090033 | 87 | 34 | 12.0 | 21.0 | 0.00 | 0.00 | 0.00 | 48 | 1016.0 |
| 20260904085529 | 87 | 11 | 7.0 | 21.0 | 0.00 | 0.00 | 0.00 | 49 | 1015.9 |
| 20260904085027 | 86 | 42 | 15.0 | 22.0 | 0.00 | 0.00 | 0.00 | 49 | 1016.0 |
| 20260904084530 | 85 | 19 | 12.0 | 25.0 | 0.00 | 0.00 | 0.00 | 50 | 1016.0 |
| 20260904084025 | 85 | 9 | 16.0 | 25.0 | 0.00 | 0.00 | 0.00 | 50 | 1016.0 |
| 20260904083531 | 85 | 5 | 17.0 | 28.0 | 0.00 | 0.00 | 0.00 | 50 | 1016.0 |
| 20260904083036 | 85 | 20 | 17.0 | 28.0 | 0.00 | 0.00 | 0.00 | 50 | 1016.1 |
| 20260904082523 | 85 | 30 | 10.0 | 23.0 | 0.00 | 0.00 | 0.00 | 50 | 1016.0 |
| 20260904082023 | 85 | 34 | 11.0 | 23.0 | 0.00 | 0.00 | 0.00 | 51 | 1015.8 |
| 20260904081522 | 84 | 72 | 12.0 | 27.0 | 0.00 | 0.00 | 0.00 | 51 | 1015.9 |
| 20260904081025 | 85 | 40 | 14.0 | 27.0 | 0.00 | 0.00 | 0.00 | 49 | 1015.9 |
| 20260904080524 | 86 | 17 | 15.0 | 23.0 | 0.00 | 0.00 | 0.00 | 48 | 1015.8 |
| 20260904080024 | 85 | 349 | 7.0 | 18.0 | 0.00 | 0.00 | 0.00 | 50 | 1015.7 |
| 20260904075519 | 85 | 86 | 11.0 | 22.0 | 0.00 | 0.00 | 0.00 | 50 | 1015.8 |
| 20260904075018 | 85 | 79 | 11.0 | 22.0 | 0.00 | 0.00 | 0.00 | 50 | 1015.7 |
| 20260904074516 | 85 | 75 | 11.0 | 19.0 | 0.00 | 0.00 | 0.00 | 51 | 1015.7 |
| 20260904074014 | 85 | 61 | 12.0 | 19.0 | 0.00 | 0.00 | 0.00 | 51 | 1015.6 |
| 20260904073513 | 84 | 26 | 9.0 | 19.0 | 0.00 | 0.00 | 0.00 | 52 | 1015.5 |
| 20260904073012 | 84 | 13 | 11.0 | 18.0 | 0.00 | 0.00 | 0.00 | 51 | 1015.5 |
| 20260904072510 | 84 | 47 | 8.0 | 18.0 | 0.00 | 0.00 | 0.00 | 50 | 1015.5 |
| 20260904072013 | 84 | 46 | 10.0 | 23.0 | 0.00 | 0.00 | 0.00 | 51 | 1015.5 |
| 20260904071510 | 84 | 30 | 9.0 | 23.0 | 0.00 | 0.00 | 0.00 | 50 | 1015.4 |
| 20260904071007 | 84 | 9 | 12.0 | 24.0 | 0.00 | 0.00 | 0.00 | 50 | 1015.5 |
| 20260904070509 | 84 | 24 | 12.0 | 24.0 | 0.00 | 0.00 | 0.00 | 50 | 1015.4 |
| 20260904070004 | 84 | 46 | 8.0 | 22.0 | 0.00 | 0.00 | 0.00 | 49 | 1015.4 |
| 20260904065503 | 84 | 22 | 13.0 | 22.0 | 0.00 | 0.00 | 0.00 | 49 | 1015.3 |
| 20260904065001 | 84 | 55 | 11.0 | 22.0 | 0.00 | 0.00 | 0.00 | 49 | 1015.2 |
| 20260904064604 | 84 | 24 | 13.0 | 23.0 | 0.00 | 0.00 | 0.00 | 48 | 1015.0 |
| 20260904064100 | 84 | 11 | 15.0 | 23.0 | 0.00 | 0.00 | 0.00 | 48 | 1015.0 |
| 20260904063556 | 84 | 13 | 12.0 | 21.0 | 0.00 | 0.00 | 0.00 | 48 | 1014.9 |
| 20260904063105 | 84 | 20 | 12.0 | 21.0 | 0.00 | 0.00 | 0.00 | 49 | 1014.8 |
| 20260904062553 | 84 | 360 | 10.0 | 21.0 | 0.00 | 0.00 | 0.00 | 49 | 1014.8 |
| 20260904062051 | 83 | 82 | 9.0 | 21.0 | 0.00 | 0.00 | 0.00 | 49 | 1014.8 |
| 20260904061550 | 83 | 34 | 9.0 | 18.0 | 0.00 | 0.00 | 0.00 | 49 | 1014.8 |
| 20260904061050 | 83 | 38 | 12.0 | 18.0 | 0.00 | 0.00 | 0.00 | 50 | 1014.8 |
| 20260904060548 | 83 | 355 | 7.0 | 13.0 | 0.00 | 0.00 | 0.00 | 50 | 1014.9 |
| 20260904060100 | 83 | 184 | 1.0 | 11.0 | 0.00 | 0.00 | 0.00 | 49 | 1014.9 |
| 20260904055545 | 83 | 13 | 2.0 | 11.0 | 0.00 | 0.00 | 0.00 | 49 | 1015.0 |
| 20260904055044 | 83 | 11 | 5.0 | 17.0 | 0.00 | 0.00 | 0.00 | 50 | 1015.0 |
| 20260904054555 | 82 | 355 | 6.0 | 17.0 | 0.00 | 0.00 | 0.00 | 51 | 1015.1 |
| 20260904054040 | 81 | 270 | 2.0 | 5.0 | 0.00 | 0.00 | 0.00 | 54 | 1015.0 |
| 20260904053539 | 80 | 273 | 2.0 | 5.0 | 0.00 | 0.00 | 0.00 | 55 | 1015.0 |
| 20260904053044 | 80 | 198 | 2.0 | 4.0 | 0.00 | 0.00 | 0.00 | 56 | 1014.9 |
| 20260904052537 | 79 | 178 | 1.0 | 5.0 | 0.00 | 0.00 | 0.00 | 58 | 1014.9 |
| 20260904052036 | 79 | 196 | 3.0 | 7.0 | 0.00 | 0.00 | 0.00 | 58 | 1014.9 |
| 20260904051536 | 79 | 167 | 3.0 | 8.0 | 0.00 | 0.00 | 0.00 | 57 | 1014.8 |
| 20260904051032 | 79 | 217 | 1.0 | 5.0 | 0.00 | 0.00 | 0.00 | 56 | 1014.6 |
| 20260904050531 | 79 | 179 | 1.0 | 3.0 | 0.00 | 0.00 | 0.00 | 57 | 1014.7 |
| 20260904050037 | 79 | 177 | 0.0 | 2.0 | 0.00 | 0.00 | 0.00 | 58 | 1014.8 |
| 20260904045533 | 78 | 139 | 0.0 | 4.0 | 0.00 | 0.00 | 0.00 | 58 | 1014.9 |